Location: Cahas Mountain Overlook
(37.0833°N, 80.1000°W)
Time: 06:57:40
(UTC-04:00)

Tiros 1 - Pass Details

Date: 16 February 2026
Orbit: 618 x 650 km, 48.4° (Epoch: 14 March)

Event Time Altitude Azimuth Distance (km) Brightness Sun altitude
Rises 15:58:14 0° 301° (WNW) 2,884 10.8 21.4°
Reaches altitude 10° 16:00:35 10° 296° (WNW) 1,976 10.1 21.0°
Maximum altitude 16:04:59 51° 221° (SW) 778 8.8 20.3°
Drops below altitude 10° 16:09:22 10° 145° (SE) 1,973 9.7 19.6°
Sets 16:11:43 0° 141° (SE) 2,880 10.4 19.2°
